GAP2968 RPME-RPLL

Flight info

Callsign GAP2968
Flight time 1h 16m
Altitude 36000
Route BAMP1A JARED W14 MCT W11 CONDE CONDE5R
Aircraft A320/M-SDE3FGHIRWY/LB1

Departure

Time 2026-04-30 18:17
Airport Bancasi Airport (RPME)

Arrival

Time 2026-04-30 19:33
Airport Ninoy Aquino International Airport (RPLL)
Time Latitude Longitude Altitude Speed Heading
2026-04-30 18:03 8.94867 125.48158 51 ft 0 kts 236°
2026-04-30 18:11 8.94885 125.48167 52 ft 1 kts 56°
2026-04-30 18:12 8.94922 125.48167 52 ft 4 kts 301°
2026-04-30 18:13 8.94987 125.48107 49 ft 8 kts 341°
2026-04-30 18:13 8.95143 125.47895 44 ft 16 kts 296°
2026-04-30 18:14 8.95260 125.47660 40 ft 19 kts 296°
2026-04-30 18:15 8.95463 125.47247 32 ft 23 kts 295°
2026-04-30 18:15 8.95605 125.46982 28 ft 5 kts 190°
2026-04-30 18:16 8.95581 125.47003 29 ft 0 kts 116°
2026-04-30 18:16 8.95441 125.47290 33 ft 92 kts 116°
2026-04-30 18:17 8.95026 125.48136 69 ft 168 kts 115°
2026-04-30 18:17 8.94487 125.49192 888 ft 174 kts 115°
2026-04-30 18:17 8.93401 125.51383 2756 ft 182 kts 114°
2026-04-30 18:18 8.92812 125.52586 3222 ft 203 kts 114°
2026-04-30 18:18 8.92221 125.54044 3801 ft 221 kts 96°
2026-04-30 18:18 8.92490 125.55696 4392 ft 239 kts 62°
2026-04-30 18:18 8.93700 125.56942 5092 ft 255 kts 30°
2026-04-30 18:19 8.95456 125.57299 5950 ft 267 kts 356°
2026-04-30 18:19 8.97196 125.56593 6813 ft 277 kts 329°
2026-04-30 18:19 8.98742 125.55409 7634 ft 282 kts 324°
2026-04-30 18:19 9.00294 125.54143 8419 ft 287 kts 324°
2026-04-30 18:20 9.01849 125.52885 9203 ft 290 kts 325°
2026-04-30 18:20 9.03436 125.51626 9959 ft 293 kts 326°
2026-04-30 18:20 9.05066 125.50350 10713 ft 297 kts 326°
2026-04-30 18:20 9.06702 125.49077 11442 ft 300 kts 326°
2026-04-30 18:21 9.08307 125.47728 12151 ft 305 kts 319°
2026-04-30 18:21 9.09765 125.46108 12788 ft 313 kts 310°
2026-04-30 18:21 9.11081 125.44281 13138 ft 330 kts 307°
2026-04-30 18:21 9.12392 125.42355 13620 ft 340 kts 306°
2026-04-30 18:22 9.13732 125.40368 14237 ft 343 kts 306°
2026-04-30 18:22 9.16452 125.36355 15474 ft 347 kts 306°
2026-04-30 18:22 9.17822 125.34347 16056 ft 349 kts 306°
2026-04-30 18:23 9.19209 125.32314 16624 ft 352 kts 306°
2026-04-30 18:23 9.20622 125.30248 17170 ft 354 kts 306°
2026-04-30 18:23 9.22023 125.28201 17698 ft 357 kts 306°
2026-04-30 18:23 9.23439 125.26131 18212 ft 360 kts 306°
2026-04-30 18:24 9.26303 125.21941 19192 ft 366 kts 306°
2026-04-30 18:24 9.27762 125.19808 19670 ft 369 kts 306°
2026-04-30 18:24 9.29228 125.17666 20140 ft 372 kts 306°
2026-04-30 18:25 9.30710 125.15498 20598 ft 375 kts 306°
2026-04-30 18:25 9.33709 125.11111 21503 ft 381 kts 306°
2026-04-30 18:25 9.35204 125.08923 21935 ft 383 kts 306°
2026-04-30 18:26 9.38261 125.04443 22803 ft 389 kts 306°
2026-04-30 18:26 9.39809 125.02174 23249 ft 391 kts 306°
2026-04-30 18:26 9.41365 124.99892 23685 ft 394 kts 306°
2026-04-30 18:27 9.44525 124.95301 24530 ft 399 kts 308°
2026-04-30 18:27 9.46227 124.93111 24948 ft 401 kts 311°
2026-04-30 18:28 9.50009 124.88870 25773 ft 405 kts 314°
2026-04-30 18:28 9.51923 124.86769 26162 ft 408 kts 314°
2026-04-30 18:28 9.55799 124.82501 26948 ft 412 kts 314°
2026-04-30 18:29 9.57726 124.80374 27336 ft 415 kts 314°
2026-04-30 18:29 9.63651 124.73824 28420 ft 423 kts 314°
2026-04-30 18:30 9.67658 124.69388 29133 ft 428 kts 314°
2026-04-30 18:30 9.71682 124.64932 29867 ft 431 kts 313°
2026-04-30 18:31 9.73718 124.62678 30251 ft 432 kts 313°
2026-04-30 18:31 9.77818 124.58154 30886 ft 438 kts 313°
2026-04-30 18:32 9.81978 124.53567 31512 ft 443 kts 313°
2026-04-30 18:32 9.84053 124.51277 31815 ft 445 kts 313°
2026-04-30 18:32 9.88265 124.46620 32427 ft 449 kts 313°
2026-04-30 18:33 9.90395 124.44266 32742 ft 451 kts 313°
2026-04-30 18:33 9.94643 124.39562 33392 ft 455 kts 313°
2026-04-30 18:33 9.96806 124.37167 33727 ft 457 kts 313°
2026-04-30 18:34 9.98935 124.34808 34058 ft 458 kts 313°
2026-04-30 18:34 10.03276 124.30000 34663 ft 462 kts 313°
2026-04-30 18:34 10.05490 124.27554 35003 ft 462 kts 313°
2026-04-30 18:35 10.07636 124.25183 35376 ft 461 kts 313°
2026-04-30 18:35 10.09819 124.22768 35692 ft 461 kts 313°
2026-04-30 18:35 10.11997 124.20355 35867 ft 463 kts 313°
2026-04-30 18:36 10.18521 124.13118 35874 ft 463 kts 313°
2026-04-30 18:37 10.25095 124.05817 35877 ft 464 kts 312°
2026-04-30 18:37 10.29547 124.01054 35878 ft 463 kts 316°
2026-04-30 18:38 10.34470 123.96773 35883 ft 463 kts 323°
2026-04-30 18:38 10.39779 123.92990 35884 ft 462 kts 326°
2026-04-30 18:39 10.45116 123.89298 35890 ft 462 kts 326°
2026-04-30 18:39 10.50449 123.85596 35893 ft 461 kts 326°
2026-04-30 18:40 10.55763 123.81898 35893 ft 461 kts 326°
2026-04-30 18:40 10.61078 123.78197 35891 ft 461 kts 326°
2026-04-30 18:41 10.66385 123.74503 35889 ft 461 kts 326°
2026-04-30 18:41 10.71695 123.70814 35885 ft 461 kts 326°
2026-04-30 18:42 10.77004 123.67119 35882 ft 461 kts 326°
2026-04-30 18:42 10.84987 123.61553 35885 ft 461 kts 326°
2026-04-30 18:45 11.14148 123.41212 35885 ft 459 kts 326°
2026-04-30 18:46 11.19458 123.37503 35886 ft 459 kts 326°
2026-04-30 18:46 11.24755 123.33802 35887 ft 460 kts 326°
2026-04-30 18:47 11.30025 123.30116 35885 ft 459 kts 326°
2026-04-30 18:47 11.35339 123.26399 35889 ft 460 kts 326°
2026-04-30 18:48 11.40606 123.22711 35888 ft 459 kts 326°
2026-04-30 18:48 11.45919 123.18990 35884 ft 459 kts 325°
2026-04-30 18:49 11.51163 123.15318 35889 ft 459 kts 325°
2026-04-30 18:49 11.56435 123.11622 35894 ft 459 kts 325°
2026-04-30 18:50 11.61735 123.07905 35897 ft 459 kts 325°
2026-04-30 18:50 11.67003 123.04209 35896 ft 458 kts 325°
2026-04-30 18:51 11.72275 123.00507 35890 ft 459 kts 325°
2026-04-30 18:51 11.77572 122.96787 35894 ft 459 kts 325°
2026-04-30 18:52 11.82854 122.93076 35893 ft 459 kts 325°
2026-04-30 18:52 11.88142 122.89359 35894 ft 457 kts 325°
2026-04-30 18:53 11.93397 122.85664 35892 ft 457 kts 325°
2026-04-30 18:53 11.98638 122.81974 35894 ft 457 kts 325°
2026-04-30 18:54 12.03812 122.78331 35896 ft 456 kts 325°
2026-04-30 18:54 12.09089 122.74614 35887 ft 457 kts 325°
2026-04-30 18:55 12.14339 122.70914 35885 ft 457 kts 325°
2026-04-30 18:55 12.22245 122.65337 35884 ft 457 kts 325°
2026-04-30 18:56 12.30115 122.59779 35883 ft 456 kts 324°
2026-04-30 18:57 12.37963 122.54234 35884 ft 456 kts 325°
2026-04-30 18:57 12.43218 122.50529 35884 ft 456 kts 324°
2026-04-30 18:58 12.51084 122.44969 35885 ft 456 kts 324°
2026-04-30 18:59 12.58967 122.39390 35885 ft 456 kts 324°
2026-04-30 19:00 12.69417 122.31983 35885 ft 455 kts 324°
2026-04-30 19:01 12.79847 122.24583 35884 ft 456 kts 324°
2026-04-30 19:02 12.87707 122.19003 35886 ft 455 kts 324°
2026-04-30 19:03 12.98202 122.11545 35576 ft 454 kts 324°
2026-04-30 19:03 13.03358 122.07879 34999 ft 450 kts 324°
2026-04-30 19:04 13.08490 122.04227 34425 ft 448 kts 324°
2026-04-30 19:04 13.13645 122.00554 33653 ft 447 kts 323°
2026-04-30 19:05 13.18737 121.96927 32893 ft 442 kts 323°
2026-04-30 19:05 13.23779 121.93331 32019 ft 437 kts 323°
2026-04-30 19:06 13.28713 121.89812 31182 ft 429 kts 324°
2026-04-30 19:06 13.31159 121.88066 30754 ft 425 kts 324°
2026-04-30 19:06 13.36016 121.84599 29900 ft 418 kts 324°
2026-04-30 19:07 13.40794 121.81186 29059 ft 410 kts 324°
2026-04-30 19:07 13.43154 121.79500 28639 ft 407 kts 324°
2026-04-30 19:08 13.47791 121.76184 27784 ft 400 kts 324°
2026-04-30 19:08 13.52348 121.72925 26848 ft 394 kts 324°
2026-04-30 19:08 13.54614 121.71303 26376 ft 391 kts 324°
2026-04-30 19:09 13.59064 121.68115 25453 ft 385 kts 324°
2026-04-30 19:09 13.61249 121.66550 24994 ft 383 kts 325°
2026-04-30 19:09 13.63427 121.64990 24516 ft 381 kts 325°
2026-04-30 19:10 13.67802 121.61831 23591 ft 377 kts 323°
2026-04-30 19:10 13.71766 121.58426 22866 ft 368 kts 319°
2026-04-30 19:11 13.73670 121.56683 22413 ft 366 kts 319°
2026-04-30 19:11 13.77475 121.53192 21553 ft 363 kts 319°
2026-04-30 19:11 13.79350 121.51475 21151 ft 361 kts 319°
2026-04-30 19:12 13.81242 121.49742 20736 ft 359 kts 319°
2026-04-30 19:12 13.83175 121.47972 20297 ft 357 kts 319°
2026-04-30 19:12 13.85036 121.46269 19886 ft 356 kts 319°
2026-04-30 19:13 13.88754 121.42864 19070 ft 352 kts 319°
2026-04-30 19:13 13.92405 121.39518 18247 ft 349 kts 319°
2026-04-30 19:13 13.94236 121.37839 17835 ft 347 kts 319°
2026-04-30 19:14 13.96046 121.36179 17428 ft 346 kts 319°
2026-04-30 19:14 13.97855 121.34519 17024 ft 344 kts 319°
2026-04-30 19:14 13.99653 121.32869 16672 ft 340 kts 319°
2026-04-30 19:14 14.01396 121.31271 16571 ft 328 kts 319°
2026-04-30 19:15 14.03066 121.29739 16469 ft 319 kts 319°
2026-04-30 19:15 14.05585 121.26102 16075 ft 307 kts 292°
2026-04-30 19:15 14.06352 121.24068 15825 ft 302 kts 291°
2026-04-30 19:16 14.07081 121.22047 15479 ft 302 kts 291°
2026-04-30 19:16 14.07819 121.20010 15103 ft 302 kts 291°
2026-04-30 19:16 14.09292 121.16010 14546 ft 297 kts 291°
2026-04-30 19:17 14.10036 121.14006 14207 ft 296 kts 292°
2026-04-30 19:17 14.11493 121.10089 13692 ft 288 kts 292°
2026-04-30 19:17 14.12203 121.08187 13449 ft 284 kts 292°
2026-04-30 19:18 14.13376 121.05042 12998 ft 279 kts 292°
2026-04-30 19:18 14.14299 121.02570 12580 ft 278 kts 292°
2026-04-30 19:18 14.14996 121.00702 12263 ft 277 kts 292°
2026-04-30 19:19 14.15690 120.98843 11934 ft 277 kts 292°
2026-04-30 19:19 14.16385 120.96976 11647 ft 274 kts 292°
2026-04-30 19:19 14.18386 120.93848 11213 ft 258 kts 330°
2026-04-30 19:20 14.19930 120.92944 10988 ft 253 kts 334°
2026-04-30 19:20 14.21473 120.92074 10759 ft 249 kts 333°
2026-04-30 19:20 14.24494 120.90328 10214 ft 247 kts 333°
2026-04-30 19:21 14.25958 120.89382 9913 ft 248 kts 319°
2026-04-30 19:21 14.26676 120.86098 9263 ft 250 kts 244°
2026-04-30 19:22 14.24783 120.83128 8711 ft 248 kts 234°
2026-04-30 19:22 14.22024 120.78580 7868 ft 248 kts 240°
2026-04-30 19:23 14.23173 120.74242 7017 ft 229 kts 338°
2026-04-30 19:24 14.26086 120.72927 6465 ft 227 kts 339°
2026-04-30 19:24 14.27529 120.72192 6197 ft 227 kts 337°
2026-04-30 19:24 14.30327 120.70624 5649 ft 225 kts 336°
2026-04-30 19:25 14.34095 120.71777 4996 ft 201 kts 58°
2026-04-30 19:26 14.35562 120.74328 4530 ft 201 kts 62°
2026-04-30 19:26 14.36933 120.76829 4024 ft 199 kts 62°
2026-04-30 19:26 14.37613 120.78065 3806 ft 198 kts 62°
2026-04-30 19:27 14.38980 120.80538 3378 ft 196 kts 62°
2026-04-30 19:27 14.40343 120.82999 3177 ft 196 kts 62°
2026-04-30 19:28 14.41020 120.84220 3191 ft 194 kts 62°
2026-04-30 19:28 14.42253 120.86437 2942 ft 161 kts 62°
2026-04-30 19:29 14.43288 120.88302 2509 ft 139 kts 62°
2026-04-30 19:29 14.43776 120.89185 2329 ft 137 kts 62°
2026-04-30 19:30 14.45206 120.91766 1842 ft 137 kts 61°
2026-04-30 19:30 14.46156 120.93475 1486 ft 135 kts 62°
2026-04-30 19:31 14.47094 120.95164 1127 ft 134 kts 62°
2026-04-30 19:31 14.47567 120.96014 951 ft 134 kts 62°
2026-04-30 19:31 14.48507 120.97677 597 ft 133 kts 63°
2026-04-30 19:32 14.48961 120.98521 468 ft 133 kts 62°
2026-04-30 19:32 14.49416 120.99348 274 ft 132 kts 61°
2026-04-30 19:32 14.49877 121.00177 128 ft 132 kts 62°
2026-04-30 19:32 14.50320 121.00983 82 ft 112 kts 60°
2026-04-30 19:33 14.50589 121.01464 82 ft 52 kts 59°
2026-04-30 19:33 14.50691 121.01636 82 ft 24 kts 53°
2026-04-30 19:33 14.50808 121.01753 82 ft 19 kts 36°
2026-04-30 19:33 14.50898 121.01776 82 ft 13 kts 327°
2026-04-30 19:34 14.50958 121.01717 82 ft 10 kts 308°
2026-04-30 19:34 14.50944 121.01668 82 ft 7 kts 245°
2026-04-30 19:34 14.50985 121.01571 82 ft 9 kts 315°
2026-04-30 19:35 14.51037 121.01519 82 ft 11 kts 314°
2026-04-30 19:35 14.51083 121.01469 82 ft 3 kts 313°
2026-04-30 19:35 14.51085 121.01453 82 ft 0 kts 239°
2026-04-30 19:35 14.51080 121.01445 82 ft 2 kts 239°
2026-04-30 19:36 14.51069 121.01427 82 ft 2 kts 232°
2026-04-30 19:36 14.51057 121.01412 82 ft 3 kts 231°
2026-04-30 19:36 14.51051 121.01403 82 ft 0 kts 230°